星链-36541(STARLINK-36541)

导读 | 豆包AI

STARLINK-36541是美国于2026年1月18日发射的星链系列卫星,星链是美国太空探索技术公司(SpaceX)打造的低轨卫星互联网星座项目,旨在为全球提供高速宽带互联网服务,该卫星的入轨进一步扩充了星链星座的规模,持续推动全球卫星互联网络覆盖建设。

基本信息
目录编号:
67509
目录名称:
STARLINK-36541
国际标识:
2026-012S
轨道中心:
EARTH
卫星名称:
星链-36541
卫星全名:
星链-36541(STARLINK-36541)
卫星状态:
在轨 (已飞行127 天)
发射日期:
2026-01-18 UTC
国别 :
美国 (US)
星等 :
--
轨道信息
数据来源 国际轨道数据
星历时间: 2026-05-25T07:15:01+0800
10小时前
查看轨道信息
半长轴: 6861.156km
偏心率: 0.0001131
轨道倾角: 43.002°
近地点辐角 287.786°
升交点赤经 243.989°
平近点角 72.287°
近地点: 482.243km
远地点: 483.795km
周期: 94.266分钟
每日圈数: 15.275903
详细信息
固有亮度:
5
最大亮度:
2.5
卫星平台:
Starlink V1.0
覆盖范围:
全球
运营商:
太空探索技术公司
运营商所在国:
美国
制造商(研发单位):
太空探索技术公司
制造商所在国:
美国
使用方式:
暂无
卫星简介
Starlink 计划是 SpaceX 推出的全球卫星互联网项目,通过发射低轨道卫星,为全球尤其是偏远地区提供高速、低延迟的互联网服务。自 2019 年起,Starlink 已部署数千颗卫星,旨在缩小全球数字鸿沟,推动互联网普及。该项目还为军事、航空等行业提供通信支持,带来广泛经济效益。
2D轨道图
3D轨道图
轨道高度分析图
轨道倾角分析图
轨道综合分析图
查看轨道综合分析图